Regional Weather Roundup
Issued by NWS

Home | Current Version | Previous Version | Text Only | Print | Product List | Glossary Off
Versions: 1 2 3 4 5 6 7 8 9 10 11 12 13 14 15 16 17 18 19 20 21 22 23 24 25 26 27 28 29 30 31 32 33 34 35 36 37 38 39 40 41 42 43 44 45 46 47 48 49 50

000
ASUS45 KBOI 041910
RWRID

IDAHO REGIONAL WEATHER ROUNDUP
NATIONAL WEATHER SERVICE BOISE ID
100 PM MDT SAT JUL 04 2015

NOTE: "FAIR" INDICATES FEW OR NO CLOUDS BELOW 12000 FEET
WITH NO SIGNIFICANT WEATHER AND/OR OBSTRUCTIONS TO VISIBILITY

IDZ012-014-042000-
SOUTHWEST IDAHO


CITY           SKY/WX    TMP DP  RH WIND       PRES   REMARKS
BOISE          MOSUNNY   94  46  19 NW8       29.85F HX  90
CALDWELL       MOSUNNY   93  46  20 NE5       29.84F
MOUNTAIN HOME  PTSUNNY   95  38  13 NW12      29.85F HX  91
$$

IDZ016-017-042000-
SOUTHCENTRAL IDAHO


CITY           SKY/WX    TMP DP  RH WIND       PRES   REMARKS
BURLEY         MOSUNNY   86  51  29 W7        29.94F
JEROME         MOSUNNY   90  42  18 SW8       29.94F
TWIN FALLS     PTSUNNY   94  40  15 W10       29.93F HX  90
$$

IDZ019>023-042000-
SOUTHEAST IDAHO


CITY           SKY/WX    TMP DP  RH WIND       PRES   REMARKS
IDAHO FALLS    SUNNY     86  53  32 VRB5      29.97F
POCATELLO      SUNNY     91  48  22 W10       29.96F
REXBURG        SUNNY     85  54  34 SW8       29.97F
$$

IDZ006-010-011-018-031-032-042000-
CENTRAL IDAHO MOUNTAINS


CITY           SKY/WX    TMP DP  RH WIND       PRES   REMARKS
MCCALL         MOSUNNY   85  39  19 MISG      29.98F
HAILEY         MOSUNNY   88  46  23 SE8       30.00F
STANLEY          N/A     85  25  11 MISG      30.10F
SALMON         SUNNY     84  43  23 NW6       29.89F
CHALLIS        SUNNY     87  36  16 SE6       29.98F
$$

IDZ002-004-006-007-026-042000-
NORTHERN IDAHO


CITY           SKY/WX    TMP DP  RH WIND       PRES   REMARKS
LEWISTON       SUNNY     94  46  19 NW5       29.77F HX  90
LOWELL           N/A     90  51  26 N3        29.76F
COEUR D`ALENE  SUNNY     88  52  29 S8        29.81S
MULLAN PASS    SUNNY     77  43  29 VRB3      30.06S
$$


USA.gov is the U.S. government's official web portal to all federal, state and local government web resources and services.